| time (UTC) | temp C | wind direction | speed KPH | gust KPH | rain 1hr cm | rain 24hr cm | rain mn cm | humidity % | barometer mb |
| 20260508100633 | 15 | 231 | 8.0 | 14.5 | 0.00 | 0.00 | 0.00 | 63 | 1016.9 |
| 20260508100133 | 16 | 233 | 8.0 | 17.7 | 0.00 | 0.00 | 0.00 | 64 | 1016.9 |
| 20260508095633 | 16 | 209 | 6.4 | 17.7 | 0.00 | 0.00 | 0.00 | 64 | 1016.9 |
| 20260508095133 | 16 | 128 | 3.2 | 17.7 | 0.00 | 0.00 | 0.00 | 64 | 1016.9 |
| 20260508094633 | 16 | 182 | 9.7 | 20.9 | 0.00 | 0.00 | 0.00 | 64 | 1016.8 |
| 20260508094133 | 16 | 195 | 8.0 | 20.9 | 0.00 | 0.00 | 0.00 | 65 | 1016.8 |
| 20260508092633 | 15 | 151 | 8.0 | 19.3 | 0.00 | 0.00 | 0.00 | 66 | 1016.8 |
| 20260508092133 | 15 | 175 | 4.8 | 17.7 | 0.00 | 0.00 | 0.00 | 68 | 1016.8 |
| 20260508091633 | 15 | 151 | 8.0 | 17.7 | 0.00 | 0.00 | 0.00 | 67 | 1016.8 |
| 20260508090634 | 15 | 248 | 4.8 | 17.7 | 0.00 | 0.00 | 0.00 | 70 | 1016.8 |
| 20260508090133 | 15 | 275 | 4.8 | 17.7 | 0.00 | 0.00 | 0.00 | 69 | 1016.7 |
| 20260508085632 | 14 | 255 | 6.4 | 20.9 | 0.00 | 0.00 | 0.00 | 70 | 1016.8 |
| 20260508085132 | 14 | 250 | 8.0 | 20.9 | 0.00 | 0.00 | 0.00 | 71 | 1016.8 |
| 20260508084634 | 13 | 221 | 8.0 | 19.3 | 0.00 | 0.00 | 0.00 | 73 | 1016.9 |
| 20260508084138 | 13 | 176 | 8.0 | 14.5 | 0.00 | 0.00 | 0.00 | 75 | 1016.9 |
| 20260508083633 | 12 | 178 | 4.8 | 12.9 | 0.00 | 0.00 | 0.00 | 76 | 1016.8 |
| 20260508083133 | 12 | 235 | 6.4 | 14.5 | 0.00 | 0.00 | 0.00 | 77 | 1016.8 |
| 20260508082633 | 12 | 193 | 8.0 | 17.7 | 0.00 | 0.00 | 0.00 | 77 | 1016.9 |
| 20260508082133 | 12 | 176 | 6.4 | 19.3 | 0.00 | 0.00 | 0.00 | 78 | 1016.8 |
| 20260508081634 | 12 | 183 | 9.7 | 19.3 | 0.00 | 0.00 | 0.00 | 80 | 1016.8 |
| 20260508081134 | 11 | 219 | 1.6 | 12.9 | 0.00 | 0.00 | 0.00 | 81 | 1016.8 |
| 20260508080634 | 11 | 149 | 6.4 | 12.9 | 0.00 | 0.00 | 0.00 | 81 | 1016.7 |
| 20260508080132 | 11 | 164 | 6.4 | 17.7 | 0.00 | 0.00 | 0.00 | 81 | 1016.7 |
| 20260508075632 | 11 | 185 | 8.0 | 17.7 | 0.00 | 0.00 | 0.00 | 81 | 1016.7 |
| 20260508075132 | 11 | 186 | 6.4 | 14.5 | 0.00 | 0.00 | 0.00 | 81 | 1016.7 |
| 20260508074634 | 11 | 214 | 9.7 | 20.9 | 0.00 | 0.00 | 0.00 | 80 | 1016.6 |
| 20260508073635 | 11 | 234 | 8.0 | 14.5 | 0.00 | 0.00 | 0.00 | 80 | 1016.6 |
| 20260508073134 | 11 | 203 | 8.0 | 14.5 | 0.00 | 0.00 | 0.00 | 80 | 1016.6 |
| 20260508072634 | 11 | 233 | 9.7 | 14.5 | 0.00 | 0.00 | 0.00 | 79 | 1016.4 |
| 20260508072133 | 11 | 275 | 4.8 | 17.7 | 0.00 | 0.00 | 0.00 | 79 | 1016.4 |
| 20260508071635 | 11 | 223 | 11.3 | 24.1 | 0.00 | 0.00 | 0.00 | 79 | 1016.3 |
| 20260508071136 | 11 | 172 | 8.0 | 24.1 | 0.00 | 0.00 | 0.00 | 79 | 1016.2 |
| 20260508070134 | 11 | 210 | 9.7 | 25.7 | 0.00 | 0.00 | 0.00 | 79 | 1016.1 |
| 20260508065633 | 11 | 171 | 14.5 | 25.7 | 0.00 | 0.00 | 0.00 | 79 | 1016.0 |
| 20260508065133 | 11 | 196 | 11.3 | 22.5 | 0.00 | 0.00 | 0.00 | 79 | 1015.9 |
| 20260508064632 | 11 | 220 | 9.7 | 24.1 | 0.00 | 0.00 | 0.00 | 80 | 1015.8 |
| 20260508064133 | 10 | 197 | 12.9 | 24.1 | 0.00 | 0.00 | 0.00 | 80 | 1015.7 |
| 20260508063633 | 10 | 220 | 12.9 | 24.1 | 0.00 | 0.00 | 0.00 | 81 | 1015.7 |
| 20260508062633 | 10 | 202 | 11.3 | 24.1 | 0.00 | 0.00 | 0.00 | 82 | 1015.6 |
| 20260508062133 | 10 | 172 | 11.3 | 22.5 | 0.00 | 0.00 | 0.00 | 83 | 1015.5 |
| 20260508061633 | 10 | 159 | 9.7 | 22.5 | 0.00 | 0.00 | 0.00 | 84 | 1015.4 |
| 20260508061133 | 10 | 200 | 11.3 | 24.1 | 0.00 | 0.00 | 0.00 | 84 | 1015.5 |
| 20260508060632 | 10 | 189 | 9.7 | 24.1 | 0.00 | 0.00 | 0.00 | 84 | 1015.5 |
| 20260508060135 | 10 | 155 | 11.3 | 24.1 | 0.00 | 0.00 | 0.00 | 84 | 1015.5 |
| 20260508055633 | 10 | 195 | 9.7 | 25.7 | 0.00 | 0.00 | 0.00 | 84 | 1015.4 |
| 20260508054634 | 10 | 176 | 8.0 | 25.7 | 0.00 | 0.00 | 0.00 | 84 | 1015.4 |
| 20260508054135 | 10 | 186 | 9.7 | 25.7 | 0.00 | 0.00 | 0.00 | 84 | 1015.3 |
| 20260508053632 | 10 | 182 | 14.5 | 25.7 | 0.00 | 0.00 | 0.00 | 84 | 1015.3 |
| 20260508053133 | 10 | 189 | 12.9 | 22.5 | 0.00 | 0.00 | 0.00 | 84 | 1015.3 |
| 20260508052634 | 9 | 186 | 14.5 | 22.5 | 0.00 | 0.00 | 0.00 | 84 | 1015.2 |
| 20260508052133 | 9 | 158 | 12.9 | 22.5 | 0.00 | 0.00 | 0.00 | 85 | 1015.2 |
| 20260508051632 | 9 | 182 | 11.3 | 22.5 | 0.00 | 0.00 | 0.00 | 84 | 1015.3 |
| 20260508050634 | 9 | 175 | 14.5 | 25.7 | 0.00 | 0.00 | 0.00 | 85 | 1015.3 |
| 20260508050135 | 9 | 169 | 12.9 | 25.7 | 0.00 | 0.00 | 0.00 | 85 | 1015.3 |
| 20260508045633 | 9 | 173 | 14.5 | 22.5 | 0.00 | 0.00 | 0.00 | 85 | 1015.2 |
| 20260508045134 | 9 | 195 | 14.5 | 24.1 | 0.00 | 0.00 | 0.00 | 85 | 1015.3 |
| 20260508044632 | 9 | 171 | 9.7 | 24.1 | 0.00 | 0.00 | 0.00 | 85 | 1015.2 |
| 20260508044133 | 9 | 178 | 11.3 | 20.9 | 0.00 | 0.00 | 0.00 | 85 | 1015.2 |
| 20260508043133 | 9 | 159 | 9.7 | 19.3 | 0.00 | 0.00 | 0.00 | 85 | 1015.1 |
| 20260508042133 | 9 | 179 | 9.7 | 20.9 | 0.00 | 0.00 | 0.00 | 85 | 1015.2 |
| 20260508041134 | 8 | 175 | 11.3 | 22.5 | 0.00 | 0.00 | 0.00 | 85 | 1015.2 |
| 20260508040634 | 8 | 190 | 11.3 | 19.3 | 0.00 | 0.00 | 0.00 | 85 | 1015.1 |
| 20260508040134 | 8 | 204 | 9.7 | 19.3 | 0.00 | 0.00 | 0.00 | 85 | 1015.1 |
| 20260508035635 | 8 | 165 | 8.0 | 14.5 | 0.00 | 0.00 | 0.00 | 85 | 1015.1 |
| 20260508035133 | 8 | 203 | 8.0 | 14.5 | 0.00 | 0.00 | 0.00 | 84 | 1015.1 |
| 20260508034635 | 9 | 175 | 4.8 | 17.7 | 0.00 | 0.00 | 0.00 | 84 | 1015.1 |
| 20260508034135 | 9 | 196 | 8.0 | 17.7 | 0.00 | 0.00 | 0.00 | 84 | 1015.0 |
| 20260508033633 | 9 | 179 | 9.7 | 24.1 | 0.00 | 0.00 | 0.00 | 84 | 1015.0 |
| 20260508033134 | 9 | 206 | 11.3 | 24.1 | 0.00 | 0.00 | 0.00 | 84 | 1015.0 |
| 20260508032133 | 9 | 188 | 8.0 | 19.3 | 0.00 | 0.00 | 0.00 | 84 | 1015.0 |
| 20260508031636 | 9 | 180 | 8.0 | 17.7 | 0.00 | 0.00 | 0.00 | 83 | 1015.0 |
| 20260508031133 | 9 | 166 | 8.0 | 22.5 | 0.00 | 0.00 | 0.00 | 83 | 1014.9 |
| 20260508030632 | 10 | 173 | 11.3 | 27.4 | 0.00 | 0.00 | 0.00 | 83 | 1015.0 |
| 20260508030132 | 10 | 185 | 14.5 | 27.4 | 0.00 | 0.00 | 0.00 | 82 | 1014.9 |
| 20260508025633 | 10 | 183 | 9.7 | 19.3 | 0.00 | 0.00 | 0.00 | 82 | 1014.8 |
| 20260508025134 | 10 | 173 | 11.3 | 20.9 | 0.00 | 0.00 | 0.00 | 82 | 1014.8 |
| 20260508024634 | 10 | 192 | 9.7 | 20.9 | 0.00 | 0.00 | 0.00 | 82 | 1014.9 |
| 20260508024134 | 10 | 176 | 11.3 | 24.1 | 0.00 | 0.00 | 0.00 | 82 | 1014.9 |
| 20260508023133 | 10 | 168 | 11.3 | 22.5 | 0.00 | 0.00 | 0.00 | 82 | 1014.9 |
| 20260508022634 | 10 | 158 | 12.9 | 22.5 | 0.00 | 0.00 | 0.00 | 82 | 1015.0 |
| 20260508021633 | 10 | 172 | 9.7 | 22.5 | 0.00 | 0.00 | 0.00 | 81 | 1014.9 |
| 20260508021133 | 10 | 202 | 9.7 | 22.5 | 0.00 | 0.00 | 0.00 | 81 | 1015.0 |
| 20260508020630 | 10 | 213 | 14.5 | 27.4 | 0.00 | 0.00 | 0.00 | 82 | 1014.9 |
| 20260508020104 | 10 | 164 | 14.5 | 27.4 | 0.00 | 0.00 | 0.00 | 81 | 1014.9 |
| 20260508015603 | 10 | 149 | 14.5 | 24.1 | 0.00 | 0.00 | 0.00 | 82 | 1014.8 |
| 20260508015103 | 10 | 226 | 12.9 | 22.5 | 0.00 | 0.00 | 0.00 | 82 | 1014.9 |
| 20260508014604 | 10 | 210 | 12.9 | 25.7 | 0.00 | 0.00 | 0.00 | 81 | 1014.9 |
| 20260508014104 | 10 | 168 | 14.5 | 25.7 | 0.00 | 0.00 | 0.00 | 82 | 1014.8 |
| 20260508013104 | 10 | 176 | 16.1 | 30.6 | 0.00 | 0.00 | 0.00 | 81 | 1014.9 |
| 20260508012104 | 10 | 207 | 14.5 | 27.4 | 0.00 | 0.00 | 0.00 | 81 | 1014.9 |
| 20260508011602 | 10 | 158 | 11.3 | 24.1 | 0.00 | 0.00 | 0.00 | 81 | 1014.9 |
| 20260508011032 | 10 | 171 | 11.3 | 25.7 | 0.00 | 0.00 | 0.00 | 81 | 1014.9 |
| 20260508010532 | 10 | 151 | 14.5 | 25.7 | 0.00 | 0.00 | 0.00 | 81 | 1014.9 |
| 20260508010034 | 10 | 135 | 14.5 | 25.7 | 0.00 | 0.00 | 0.00 | 80 | 1014.8 |
| 20260508005532 | 10 | 188 | 8.0 | 27.4 | 0.00 | 0.00 | 0.00 | 80 | 1014.9 |
| 20260508005033 | 10 | 169 | 14.5 | 27.4 | 0.00 | 0.00 | 0.00 | 80 | 1015.0 |
| 20260508004534 | 10 | 206 | 14.5 | 33.8 | 0.00 | 0.00 | 0.00 | 80 | 1015.0 |
| 20260508004033 | 10 | 183 | 20.9 | 33.8 | 0.00 | 0.00 | 0.00 | 80 | 1015.1 |
| 20260508003532 | 10 | 168 | 14.5 | 29.0 | 0.00 | 0.00 | 0.00 | 79 | 1015.0 |
| 20260508003035 | 10 | 164 | 12.9 | 27.4 | 0.00 | 0.00 | 0.00 | 79 | 1015.1 |
| 20260508002533 | 10 | 159 | 16.1 | 29.0 | 0.00 | 0.00 | 0.00 | 79 | 1015.1 |
| 20260508002033 | 10 | 171 | 17.7 | 29.0 | 0.00 | 0.00 | 0.00 | 78 | 1015.1 |
| 20260508001033 | 10 | 180 | 9.7 | 27.4 | 0.00 | 0.00 | 0.00 | 78 | 1015.2 |
| 20260508000532 | 10 | 161 | 11.3 | 27.4 | 0.00 | 0.00 | 0.00 | 78 | 1015.1 |
| 20260508000032 | 10 | 203 | 16.1 | 27.4 | 0.00 | 0.00 | 0.00 | 78 | 1015.3 |
| 20260507235534 | 10 | 175 | 14.5 | 30.6 | 0.00 | 0.00 | 0.00 | 78 | 1015.3 |
| 20260507235035 | 10 | 176 | 14.5 | 30.6 | 0.00 | 0.00 | 0.00 | 78 | 1015.1 |
| 20260507234533 | 10 | 178 | 12.9 | 27.4 | 0.00 | 0.00 | 0.00 | 78 | 1015.1 |
| 20260507234035 | 10 | 166 | 12.9 | 27.4 | 0.00 | 0.00 | 0.00 | 79 | 1015.1 |
| 20260507233033 | 10 | 176 | 16.1 | 33.8 | 0.00 | 0.00 | 0.00 | 78 | 1015.1 |
| 20260507232533 | 10 | 180 | 9.7 | 33.8 | 0.00 | 0.00 | 0.00 | 79 | 1015.0 |
| 20260507232034 | 10 | 188 | 16.1 | 35.4 | 0.00 | 0.00 | 0.00 | 79 | 1015.1 |
| 20260507231533 | 10 | 145 | 17.7 | 35.4 | 0.00 | 0.00 | 0.00 | 79 | 1015.1 |
| 20260507231032 | 10 | 172 | 16.1 | 29.0 | 0.00 | 0.00 | 0.00 | 79 | 1015.1 |
| 20260507230532 | 10 | 164 | 12.9 | 29.0 | 0.00 | 0.00 | 0.00 | 79 | 1015.1 |
| 20260507225533 | 10 | 152 | 12.9 | 30.6 | 0.00 | 0.00 | 0.00 | 79 | 1015.1 |
| 20260507225033 | 10 | 210 | 11.3 | 27.4 | 0.00 | 0.00 | 0.00 | 79 | 1015.0 |
| 20260507224535 | 10 | 175 | 9.7 | 29.0 | 0.00 | 0.00 | 0.00 | 79 | 1015.1 |
| 20260507224034 | 10 | 192 | 20.9 | 29.0 | 0.00 | 0.00 | 0.00 | 79 | 1014.9 |
| 20260507223532 | 10 | 173 | 16.1 | 29.0 | 0.00 | 0.00 | 0.00 | 79 | 1014.8 |
| 20260507223033 | 10 | 141 | 17.7 | 25.7 | 0.00 | 0.00 | 0.00 | 79 | 1014.9 |
| 20260507222533 | 10 | 141 | 11.3 | 32.2 | 0.00 | 0.00 | 0.00 | 79 | 1014.9 |
| 20260507222034 | 10 | 159 | 11.3 | 32.2 | 0.00 | 0.00 | 0.00 | 79 | 1015.0 |
| 20260507221532 | 10 | 135 | 14.5 | 25.7 | 0.00 | 0.00 | 0.00 | 79 | 1015.0 |
| 20260507221033 | 10 | 157 | 14.5 | 27.4 | 0.00 | 0.00 | 0.00 | 78 | 1014.9 |
| 20260507220033 | 10 | 141 | 12.9 | 33.8 | 0.00 | 0.00 | 0.00 | 78 | 1015.1 |
| 20260507215535 | 10 | 189 | 16.1 | 33.8 | 0.00 | 0.00 | 0.00 | 77 | 1015.1 |
| 20260507215032 | 10 | 152 | 16.1 | 29.0 | 0.00 | 0.00 | 0.00 | 77 | 1015.1 |
| 20260507214032 | 10 | 121 | 12.9 | 25.7 | 0.00 | 0.00 | 0.00 | 77 | 1015.1 |
| 20260507213532 | 10 | 158 | 9.7 | 22.5 | 0.00 | 0.00 | 0.00 | 77 | 1015.2 |
| 20260507213036 | 10 | 142 | 12.9 | 25.7 | 0.00 | 0.00 | 0.00 | 77 | 1015.1 |
| 20260507212535 | 10 | 147 | 11.3 | 30.6 | 0.00 | 0.00 | 0.00 | 77 | 1015.1 |
| 20260507212033 | 10 | 144 | 16.1 | 30.6 | 0.00 | 0.00 | 0.00 | 77 | 1015.0 |
| 20260507211033 | 11 | 178 | 9.7 | 27.4 | 0.00 | 0.00 | 0.00 | 78 | 1015.1 |
| 20260507210534 | 11 | 165 | 16.1 | 27.4 | 0.00 | 0.00 | 0.00 | 77 | 1015.0 |
| 20260507210029 | 11 | 130 | 9.7 | 25.7 | 0.00 | 0.00 | 0.00 | 77 | 1015.1 |
| 20260507205532 | 11 | 155 | 12.9 | 25.7 | 0.00 | 0.00 | 0.00 | 77 | 1014.9 |
| 20260507205032 | 11 | 149 | 14.5 | 27.4 | 0.00 | 0.00 | 0.00 | 77 | 1014.9 |
| 20260507204533 | 10 | 145 | 14.5 | 27.4 | 0.00 | 0.00 | 0.00 | 78 | 1014.9 |
| 20260507203532 | 10 | 137 | 14.5 | 29.0 | 0.00 | 0.00 | 0.00 | 79 | 1014.9 |
| 20260507202532 | 10 | 140 | 12.9 | 35.4 | 0.00 | 0.00 | 0.00 | 79 | 1014.9 |
| 20260507202032 | 11 | 165 | 9.7 | 22.5 | 0.00 | 0.00 | 0.00 | 79 | 1014.8 |
| 20260507201532 | 11 | 123 | 16.1 | 22.5 | 0.00 | 0.00 | 0.00 | 79 | 1014.8 |
| 20260507201033 | 11 | 148 | 12.9 | 27.4 | 0.00 | 0.00 | 0.00 | 79 | 1014.8 |
| 20260507200034 | 11 | 147 | 11.3 | 22.5 | 0.00 | 0.00 | 0.00 | 77 | 1014.8 |
| 20260507195533 | 11 | 103 | 12.9 | 22.5 | 0.00 | 0.00 | 0.00 | 77 | 1014.7 |
| 20260507195034 | 11 | 133 | 11.3 | 22.5 | 0.00 | 0.00 | 0.00 | 77 | 1014.7 |
| 20260507194532 | 11 | 110 | 12.9 | 22.5 | 0.00 | 0.00 | 0.00 | 77 | 1014.6 |
| 20260507194035 | 11 | 173 | 9.7 | 24.1 | 0.00 | 0.00 | 0.00 | 77 | 1014.5 |
| 20260507193535 | 11 | 155 | 14.5 | 24.1 | 0.00 | 0.00 | 0.00 | 77 | 1014.5 |
| 20260507193040 | 11 | 127 | 9.7 | 17.7 | 0.00 | 0.00 | 0.00 | 77 | 1014.4 |
| 20260507192037 | 11 | 130 | 12.9 | 22.5 | 0.00 | 0.00 | 0.00 | 77 | 1014.5 |
| 20260507191533 | 11 | 152 | 9.7 | 27.4 | 0.00 | 0.00 | 0.00 | 77 | 1014.6 |
| 20260507191033 | 11 | 165 | 9.7 | 27.4 | 0.00 | 0.00 | 0.00 | 76 | 1014.5 |
| 20260507190532 | 11 | 134 | 11.3 | 24.1 | 0.00 | 0.00 | 0.00 | 76 | 1014.5 |
| 20260507190032 | 12 | 114 | 8.0 | 22.5 | 0.00 | 0.00 | 0.00 | 76 | 1014.6 |
| 20260507185033 | 12 | 154 | 6.4 | 17.7 | 0.00 | 0.00 | 0.00 | 75 | 1014.4 |
| 20260507184532 | 12 | 140 | 8.0 | 20.9 | 0.00 | 0.00 | 0.00 | 74 | 1014.4 |
| 20260507183533 | 12 | 138 | 6.4 | 20.9 | 0.00 | 0.00 | 0.00 | 71 | 1014.2 |
| 20260507183033 | 12 | 59 | 11.3 | 20.9 | 0.00 | 0.00 | 0.00 | 71 | 1014.2 |
| 20260507182034 | 12 | 134 | 8.0 | 20.9 | 0.00 | 0.00 | 0.00 | 69 | 1014.2 |
| 20260507181533 | 12 | 154 | 11.3 | 19.3 | 0.00 | 0.00 | 0.00 | 68 | 1014.2 |
| 20260507181035 | 13 | 155 | 6.4 | 20.9 | 0.00 | 0.00 | 0.00 | 68 | 1014.2 |
| 20260507180534 | 13 | 121 | 8.0 | 20.9 | 0.00 | 0.00 | 0.00 | 67 | 1014.2 |
| 20260507180033 | 13 | 158 | 8.0 | 20.9 | 0.00 | 0.00 | 0.00 | 65 | 1014.3 |
| 20260507175540 | 13 | 155 | 8.0 | 25.7 | 0.00 | 0.00 | 0.00 | 65 | 1014.4 |
| 20260507175036 | 13 | 141 | 8.0 | 25.7 | 0.00 | 0.00 | 0.00 | 63 | 1014.3 |
| 20260507174533 | 13 | 168 | 8.0 | 17.7 | 0.00 | 0.00 | 0.00 | 64 | 1014.4 |
| 20260507174033 | 13 | 186 | 8.0 | 17.7 | 0.00 | 0.00 | 0.00 | 64 | 1014.4 |
| 20260507173533 | 13 | 204 | 4.8 | 14.5 | 0.00 | 0.00 | 0.00 | 64 | 1014.4 |
| 20260507173033 | 13 | 183 | 6.4 | 14.5 | 0.00 | 0.00 | 0.00 | 64 | 1014.3 |
| 20260507172533 | 13 | 178 | 4.8 | 19.3 | 0.00 | 0.00 | 0.00 | 64 | 1014.3 |
| 20260507172033 | 13 | 190 | 9.7 | 19.3 | 0.00 | 0.00 | 0.00 | 64 | 1014.4 |
| 20260507171533 | 13 | 196 | 8.0 | 17.7 | 0.00 | 0.00 | 0.00 | 63 | 1014.3 |
| 20260507171034 | 13 | 182 | 9.7 | 19.3 | 0.00 | 0.00 | 0.00 | 63 | 1014.3 |
| 20260507170533 | 13 | 192 | 11.3 | 19.3 | 0.00 | 0.00 | 0.00 | 63 | 1014.4 |
| 20260507165532 | 13 | 199 | 12.9 | 22.5 | 0.00 | 0.00 | 0.00 | 64 | 1014.5 |
| 20260507165033 | 13 | 193 | 9.7 | 17.7 | 0.00 | 0.00 | 0.00 | 64 | 1014.6 |
| 20260507164532 | 13 | 200 | 6.4 | 19.3 | 0.00 | 0.00 | 0.00 | 64 | 1014.6 |
| 20260507164034 | 13 | 185 | 9.7 | 19.3 | 0.00 | 0.00 | 0.00 | 63 | 1014.6 |
| 20260507163533 | 13 | 206 | 8.0 | 19.3 | 0.00 | 0.00 | 0.00 | 64 | 1014.5 |
| 20260507163032 | 13 | 217 | 8.0 | 19.3 | 0.00 | 0.00 | 0.00 | 63 | 1014.5 |
| 20260507162534 | 13 | 190 | 6.4 | 17.7 | 0.00 | 0.00 | 0.00 | 63 | 1014.5 |
| 20260507161535 | 12 | 213 | 8.0 | 14.5 | 0.00 | 0.00 | 0.00 | 63 | 1014.6 |
| 20260507161033 | 12 | 161 | 4.8 | 17.7 | 0.00 | 0.00 | 0.00 | 63 | 1014.6 |
| 20260507160535 | 12 | 196 | 9.7 | 24.1 | 0.00 | 0.00 | 0.00 | 63 | 1014.6 |
| 20260507155533 | 12 | 182 | 11.3 | 20.9 | 0.00 | 0.00 | 0.00 | 61 | 1014.6 |
| 20260507155034 | 12 | 202 | 9.7 | 22.5 | 0.00 | 0.00 | 0.00 | 61 | 1014.7 |
| 20260507154032 | 12 | 189 | 9.7 | 20.9 | 0.00 | 0.00 | 0.00 | 61 | 1014.7 |
| 20260507153534 | 13 | 171 | 11.3 | 24.1 | 0.00 | 0.00 | 0.00 | 61 | 1014.7 |
| 20260507153030 | 13 | 200 | 14.5 | 24.1 | 0.00 | 0.00 | 0.00 | 61 | 1014.8 |
| 20260507152529 | 13 | 203 | 11.3 | 20.9 | 0.00 | 0.00 | 0.00 | 62 | 1014.8 |
| 20260507152029 | 12 | 179 | 14.5 | 25.7 | 0.00 | 0.00 | 0.00 | 61 | 1014.8 |
| 20260507151529 | 12 | 202 | 9.7 | 25.7 | 0.00 | 0.00 | 0.00 | 63 | 1014.8 |
| 20260507151030 | 12 | 209 | 14.5 | 25.7 | 0.00 | 0.00 | 0.00 | 64 | 1014.8 |
| 20260507150531 | 12 | 202 | 11.3 | 29.0 | 0.00 | 0.00 | 0.00 | 64 | 1014.9 |
| 20260507145504 | 12 | 188 | 12.9 | 27.4 | 0.00 | 0.00 | 0.00 | 63 | 1014.8 |
| 20260507145004 | 12 | 172 | 16.1 | 27.4 | 0.00 | 0.00 | 0.00 | 63 | 1014.9 |
| 20260507144504 | 12 | 195 | 12.9 | 22.5 | 0.00 | 0.00 | 0.00 | 64 | 1014.9 |
| 20260507144004 | 12 | 166 | 6.4 | 17.7 | 0.00 | 0.00 | 0.00 | 64 | 1014.9 |
| 20260507143433 | 12 | 183 | 11.3 | 22.5 | 0.00 | 0.00 | 0.00 | 64 | 1014.9 |
| 20260507142933 | 12 | 196 | 16.1 | 22.5 | 0.00 | 0.00 | 0.00 | 64 | 1015.0 |
| 20260507142431 | 12 | 197 | 12.9 | 22.5 | 0.00 | 0.00 | 0.00 | 65 | 1015.0 |
| 20260507141931 | 12 | 155 | 9.7 | 30.6 | 0.00 | 0.00 | 0.00 | 65 | 1015.1 |
| 20260507141430 | 12 | 192 | 14.5 | 30.6 | 0.00 | 0.00 | 0.00 | 64 | 1015.1 |
| 20260507140930 | 12 | 172 | 9.7 | 25.7 | 0.00 | 0.00 | 0.00 | 64 | 1015.0 |
| 20260507140430 | 12 | 192 | 14.5 | 29.0 | 0.00 | 0.00 | 0.00 | 63 | 1015.0 |
| 20260507135932 | 12 | 173 | 11.3 | 29.0 | 0.00 | 0.00 | 0.00 | 62 | 1015.2 |
| 20260507134930 | 13 | 135 | 11.3 | 32.2 | 0.00 | 0.00 | 0.00 | 61 | 1015.2 |
| 20260507134431 | 13 | 176 | 19.3 | 29.0 | 0.00 | 0.00 | 0.00 | 62 | 1015.2 |
| 20260507133929 | 13 | 185 | 14.5 | 27.4 | 0.00 | 0.00 | 0.00 | 61 | 1015.2 |
| 20260507133433 | 13 | 189 | 12.9 | 29.0 | 0.00 | 0.00 | 0.00 | 61 | 1015.3 |
| 20260507132931 | 13 | 169 | 17.7 | 30.6 | 0.00 | 0.00 | 0.00 | 62 | 1015.2 |
| 20260507132431 | 13 | 168 | 17.7 | 30.6 | 0.00 | 0.00 | 0.00 | 60 | 1015.2 |
| 20260507131932 | 13 | 168 | 19.3 | 30.6 | 0.00 | 0.00 | 0.00 | 60 | 1015.2 |
| 20260507130431 | 13 | 140 | 14.5 | 32.2 | 0.00 | 0.00 | 0.00 | 61 | 1015.2 |
| 20260507125930 | 13 | 144 | 12.9 | 32.2 | 0.00 | 0.00 | 0.00 | 60 | 1015.1 |
| 20260507124931 | 13 | 200 | 16.1 | 32.2 | 0.00 | 0.00 | 0.00 | 60 | 1015.2 |
| 20260507124432 | 13 | 199 | 16.1 | 32.2 | 0.00 | 0.00 | 0.00 | 60 | 1015.2 |
| 20260507123932 | 13 | 203 | 19.3 | 32.2 | 0.00 | 0.00 | 0.00 | 60 | 1015.2 |
| 20260507122932 | 13 | 186 | 11.3 | 25.7 | 0.00 | 0.00 | 0.00 | 62 | 1015.0 |
| 20260507122430 | 13 | 235 | 14.5 | 30.6 | 0.00 | 0.00 | 0.00 | 62 | 1015.2 |
| 20260507121930 | 13 | 226 | 16.1 | 30.6 | 0.00 | 0.00 | 0.00 | 63 | 1015.2 |
| 20260507121429 | 13 | 245 | 12.9 | 24.1 | 0.00 | 0.00 | 0.00 | 62 | 1015.2 |
| 20260507120933 | 13 | 197 | 11.3 | 27.4 | 0.00 | 0.00 | 0.00 | 63 | 1015.2 |
| 20260507120430 | 13 | 188 | 14.5 | 27.4 | 0.00 | 0.00 | 0.00 | 64 | 1015.2 |
| 20260507115930 | 13 | 219 | 12.9 | 24.1 | 0.00 | 0.00 | 0.00 | 64 | 1015.3 |
| 20260507115430 | 13 | 178 | 14.5 | 25.7 | 0.00 | 0.00 | 0.00 | 64 | 1015.3 |
| 20260507114429 | 13 | 190 | 14.5 | 30.6 | 0.00 | 0.00 | 0.00 | 61 | 1015.3 |
| 20260507113931 | 13 | 154 | 9.7 | 29.0 | 0.00 | 0.00 | 0.00 | 65 | 1015.3 |
| 20260507113433 | 13 | 185 | 16.1 | 29.0 | 0.00 | 0.00 | 0.00 | 64 | 1015.2 |
| 20260507112430 | 11 | 196 | 17.7 | 27.4 | 0.00 | 0.00 | 0.00 | 71 | 1015.3 |
| 20260507111933 | 11 | 202 | 12.9 | 27.4 | 0.00 | 0.00 | 0.00 | 72 | 1015.3 |
| 20260507110931 | 11 | 227 | 8.0 | 25.7 | 0.00 | 0.00 | 0.00 | 74 | 1015.3 |
| 20260507110431 | 10 | 186 | 12.9 | 25.7 | 0.00 | 0.00 | 0.00 | 74 | 1015.5 |
| 20260507105932 | 10 | 228 | 9.7 | 25.7 | 0.00 | 0.00 | 0.00 | 75 | 1015.5 |
| 20260507105433 | 10 | 185 | 14.5 | 25.7 | 0.00 | 0.00 | 0.00 | 76 | 1015.5 |
| 20260507104934 | 10 | 228 | 9.7 | 24.1 | 0.00 | 0.00 | 0.00 | 75 | 1015.5 |
| 20260507104430 | 10 | 200 | 9.7 | 24.1 | 0.00 | 0.00 | 0.00 | 75 | 1015.6 |
| 20260507103931 | 10 | 193 | 11.3 | 19.3 | 0.00 | 0.00 | 0.00 | 76 | 1015.6 |
| 20260507103431 | 10 | 216 | 9.7 | 24.1 | 0.00 | 0.00 | 0.00 | 75 | 1015.6 |
| 20260507102931 | 10 | 166 | 14.5 | 30.6 | 0.00 | 0.00 | 0.00 | 75 | 1015.6 |
| 20260507102432 | 10 | 162 | 9.7 | 30.6 | 0.00 | 0.00 | 0.00 | 75 | 1015.6 |
| 20260507101931 | 10 | 173 | 12.9 | 22.5 | 0.00 | 0.00 | 0.00 | 75 | 1015.5 |
| 20260507101431 | 10 | 175 | 8.0 | 30.6 | 0.00 | 0.00 | 0.00 | 75 | 1015.6 |
| 20260507100931 | 10 | 193 | 14.5 | 33.8 | 0.00 | 0.00 | 0.00 | 74 | 1015.6 |